www.pogodaiklimat.ru

Погода и климат >> Архив погоды >> Россия >> Кемеровская область >> Крапивино


ПОГОДА в Крапивино

  • Прогноз погоды в Крапивино
  • Монитор погоды в Крапивино

АРХИВ ПОГОДЫ в Крапивино

Время (UTC), дата Ветер
(напр.,м/с)
 
Видим.   Явления Облачность Т
(С)
Тd
(С)
f
(%)
Тe
(С)
Тes
(С)
Комфортность P
(гПа)
Po
(гПа)
Тmin
(С)
Tmax
(С)
R
(мм)
R24
(мм)
S
(см)
03 20.03 В 1 20 км слаб. ливневой снег 10/8 750 м
[Cb cap Ac lent Ci fib]
-5.8 -9.0 78 -8 -8 1035.6 1015.7
06 20.03 СВ 1 20 км слаб. ливневой снег 9 баллов -1.0 -6.7 65 -3 -2 1036.7 1017.3
09 20.03 ЮЗ 2 20 км {ливн. осадки} 4/4 600 м
[Sc diur, vesp]
+0.1 -7.6 56 -3 -0 1035.3 1016.0
12 20.03 штиль 0 20 км {ливн. осадки} 4/3 600 м
[Cb cap Ac lent Ci fib]
-1.6 -7.7 63 -2 -2 1035.4 1015.8 +1.1 0.0
15 20.03 штиль 0 20 км 1/0
[Ac trans]
-6.7 -9.6 80 -7 -7 1037.1 1017.3
18 20.03 Ю 1 20 км ясно -10.6 -12.8 84 -13 -13 1036.1 1016.0
21 20.03 Ю 1 20 км 1/0
[Ci fib]
-12.0 -14.0 85 -14 -14 1036.2 1016.0
00 21.03 ЮВ 1 20 км 1/0
[Ci fib]
-13.8 -16.0 83 -16 -16 1035.8 1015.2 -14.1 43
03 21.03 штиль 0 50 км 1 балл -8.1 -12.4 71 -9 -4 1037.3 1017.3 -14.1
06 21.03 З 1 50 км 1/0
[Ci fib]
+0.9 -8.3 50 -0 +8 1035.3 1016.0
09 21.03 З 2 50 км ясно +1.8 -8.0 48 -1 +4 1033.9 1014.7
12 21.03 З 1 50 км ясно +0.7 -8.1 52 -1 -0 1031.5 1012.1 +2.4
15 21.03 штиль 0 20 км ясно -6.2 -9.2 79 -7 -7 1031.7 1012.0
18 21.03 ЮВ 1 20 км ясно -8.4 -10.8 83 -11 -11 1031.9 1012.0
21 21.03 Ю 1 20 км 3/0
[Ci fib]
-10.2 -12.1 86 -13 -13 1029.3 1009.3
00 22.03 ЮВ 1 50 км 1/0
[Ci fib]
-11.2 -13.1 86 -13 -13 1028.8 1008.5 -11.7 41
03 22.03 В 1 50 км 3/0
[Ci fib]
-4.3 -9.9 65 -6 -3 1028.8 1009.3
06 22.03 Ю 3 50 км 8/0
[Ci fib]
+5.0 -8.5 37 +2 +4 1026.8 1008.0
09 22.03 Ю 3 50 км 8/0
[Ci fib]
+7.4 -7.1 35 +5 +6 1025.3 1006.7
12 22.03 Ю 2 50 км 9/0
[Ci fib]
+6.6 -8.5 33 +5 +5 1024.0 1005.3 +7.8
15 22.03 Ю 1 50 км 6/0
[Ac lent Ci fib]
-0.1 -7.1 59 -2 -2 1024.4 1005.3
18 22.03 Ю 2 50 км 4/0
[Ci fib]
-2.2 -8.3 63 -6 -6 1024.6 1005.3
21 22.03 ЮВ 1 50 км 1/0
[Ci fib]
-4.8 -9.1 72 -7 -7 1024.8 1005.3
00 23.03 ЮВ 2 50 км 3/0
[Ac trans Ci fib]
-7.1 -10.4 77 -11 -11 1023.7 1003.9 -7.1 39
03 23.03 Ю 3 50 км 3/3 1000 м
[Sc Ci fib]
+0.8 -7.7 53 -3 -1 1024.4 1005.3 -7.3
06 23.03 ЮЗ 3 50 км 3/0
[Cc]
+5.0 -7.2 41 +2 +8 1022.8 1004.0
09 23.03 Ю 1 50 км 8/3 1000 м
[Sc Ac trans]
+7.2 -7.2 35 +7 +9 1021.3 1002.7
12 23.03 штиль 0 50 км 9/5 1000 м
[Sc Ac lent Ci fib]
+6.7 -5.3 42 +7 +7 1019.7 1000.9 +7.8
15 23.03 ЮВ 1 50 км 8/0
[Ac trans]
+1.4 -4.1 67 0 0 1020.2 1001.3
18 23.03 ЮВ 2 50 км ясно -1.5 -5.2 76 -5 -5 1020.4 1001.3
21 23.03 ЮВ 2 50 км ясно -2.8 -6.4 76 -7 -7 1020.5 1001.3
00 24.03 ЮВ 1 50 км 8/0
[Ac trans]
-4.4 -7.1 81 -7 -7 1018.9 999.4 -4.7 33
03 24.03 ЮВ 1 50 км 9 баллов +0.5 -5.7 63 -1 -0 1020.3 1001.3
12 24.03 ЮЗ 2 50 км {ливн. осадки} 10/3 1000 м
[Sc Ac lent Ci fib]
+3.8 -1.3 69 +1 +1 1018.0 999.1 +6.5 0.0
00 25.03 З 1 4000 м слаб. ливневой снег 10/10 630 м
[Cb cap]
-1.1 -2.8 88 -3 -3 1021.1 1001.8 -2.3 0.0 31
06 25.03 СЗ 3 10 км слаб. ливневой снег 9 баллов +3.0 -3.3 63 -1 0 1025.6 1006.7
09 25.03 СЗ 1 50 км в посл. час ливневой снег 7 баллов +3.1 -3.7 61 +2 +4 1026.9 1008.0
12 25.03 СЗ 2 50 км {ливн. осадки} 9/4 1000 м
[Sc Ac trans Ci fib]
+2.5 -5.3 56 -0 -0 1028.3 1009.2 +4.0 0.3
15 25.03 СЗ 1 50 км 9 баллов +1.2 -5.7 60 -0 -0 1031.2 1012.0
18 25.03 штиль 0 50 км 7 баллов +0.6 -7.6 54 0 0 1031.2 1012.0
21 25.03 штиль 0 50 км 6 баллов -4.0 -7.8 75 -5 -5 1032.9 1013.3
00 26.03 штиль 0 50 км 3/0
[Ci fib]
-7.1 -8.8 88 -8 -8 1033.3 1013.3 -7.1 27
03 26.03 штиль 0 50 км 2 балла -0.3 -7.8 57 -1 +4 1035.3 1016.0 -7.5
06 26.03 СВ 1 50 км 2 балла +5.5 -10.7 30 +5 +13 1033.6 1014.7
09 26.03 ЮЗ 2 50 км ясно +6.5 -9.4 31 +5 +10 1032.1 1013.3
12 26.03 З 1 50 км ясно +4.7 -8.0 39 +4 +4 1030.9 1011.8 +7.0
15 26.03 штиль 0 50 км ясно -2.6 -6.8 73 -3 -3 1031.4 1012.0
18 26.03 Ю 1 50 км ясно -5.9 -8.3 83 -8 -8 1030.4 1010.7
21 26.03 штиль 0 50 км ясно -8.6 -10.5 86 -9 -9 1029.1 1009.3

 

Местоположение метеостанции Крапивино (Кемеровская область, Россия): широта 55.00 долгота 86.82 высота над уровнем моря 151 м.

В архиве по умолчанию представлена погода в Крапивино за последнюю неделю. Архивные данные за месяц целиком и за предыдущие месяцы, начиная с января 2011 года, Вы можете получить, выбрав интересующий диапазон дат из раскрывающегося списка и нажав кнопку "Ввод!".


*Определитесь, кто Вы:
робот инопланетянин человек

Внимание! Время в таблицах - всемирное. Для получения местного времени необходимо прибавить поправку, которая равна 7 ч.

Смотрите также архив погоды в соседних городах и на ближайших метеорологических станциях:

Погода в Кемерово (Кемеровская область, Россия) (47 км)
Погода в Ленинск-Кузнецком (Кемеровская область, Россия) (51 км)
Погода в Центральном Руднике (Кемеровская область, Россия) (57 км)
Погода в Кемерово АМС (Кемеровская область, Россия) (59 км)
Погода в Белово (Кемеровская область, Россия) (68 км)
Погода в Промышленной (Кемеровская область, Россия) (77 км)
Погода в Топках (Кемеровская область, Россия) (83 км)
Погода в Барзасе (Кемеровская область, Россия) (85 км)
Погода в Красном (Кемеровская область, Россия) (101 км)
Погода в Киселевске (Кемеровская область, Россия) (108 км)

Пояснения к столбцам:

Ветер - указаны скорость ветра в м/с - средняя за 10 мин, порывы в срок и между сроками (в фигурных скобках) и направление, откуда дует ветер: С - северный, СВ - северо-восточный, В - восточный, ЮВ - юго-восточный, Ю - южный, ЮЗ - юго-западный, З - западный, СЗ - северо-западный.
Видимость - горизонтальная дальность видимости в метрах или километрах. При видимости от 1 до 10 км при отсутствии осадков обычно наблюдается дымка, при ухудшении видимости до 1 км и менее - туман. В сухую погоду видимость может ухудшаться дымом, пылью или мглою.
Явления - указаны атмосферные явления, наблюдавшиеся в срок или в последний час перед сроком; фигурными скобками обозначены явления, наблюдавшиеся между сроками (за 1-3 часа до срока); квадратными скобками обозначены град или гололедные отложения с указанием их диаметра в мм.
Облачность - указаны через наклонную черту общая и нижняя облачность в баллах и высота нижней границы облаков в метрах; квадратными скобками обозначены формы облаков: Ci - перистые, Cs - перисто-слоистые, Cc - перисто-кучевые, Ac - высококучевые, As - высокослоистые, Sc - слоисто-кучевые, Ns - слоисто-дождевые, Cu - кучевые, Cb - кучево-дождевые. Подробнее классификацию облаков см. в Атласе облаков (PDF).
T - Температура воздуха - температура, измеренная на высоте 2 м над землей.
Td - Температура точки росы - температура, при понижении до которой содержащийся в воздухе водяной пар достигнет насыщения.
f - Относительная влажность воздуха - влажноcть воздуха, измеренная на высоте 2 м над землей.
Te - Эффективная температура - температура, которую ощущает одетый по сезону человек в тени. Характеристика душности погоды. При расчете учитывается влияние влажности воздуха и скорости ветра на теплоощущения человека.
Tes - Эффективная температура на солнце - температура, которую ощущает человек, с поправкой на солнечный нагрев. Характеристика знойности погоды. Зависит от высоты солнца над горизонтом, облачности и скорости ветра. Ночью, в пасмурную погоду, а также при ветре 12 м/с и более поправка равна нулю.
P - Атмосферное давление - приведенное к уровню моря атмосферное давление.
Po - Атмосферное давление - измеренное на уровне метеостанции атмосферное давление.
Tmin - Минимальная температура - минимум температуры воздуха на высоте 2 м над землей.
Tmax - Максимальная температура - максимум температуры воздуха на высоте 2 м над землей.
R - Количество осадков - Количество выпавших осадков за период времени, мм. При наведении курсора мыши на число - период времени, за который выпало указанное количество осадков.
R24 - Количество осадков - Количество выпавших осадков за 24 часа, мм.
S - Снежный покров - Высота снежного покрова, см. При наведении курсора мыши на число - состояние снежного покрова и степень покрытия местности в баллах.